Location: Home
(51.5204°N, 2.5456°W)
Time: 06:35:42
(UTC+00:00)

STRAND 1 - Pass Details

Date: 10 December 2019
Orbit: 768 x 781 km, 98.5° (Epoch: 20 January)

Event Time Altitude Azimuth Distance (km) Brightness Sun altitude
Rises 07:18:39 0° 185° (S) 3,247 ? -6.8°
Reaches altitude 10° 07:21:06 10° 193° (SSW) 2,322 ? -6.5°
Maximum altitude 07:25:54 40° 263° (W) 1,127 ? -5.8°
Drops below altitude 10° 07:30:44 10° 333° (NNW) 2,330 ? -5.2°
Sets 07:33:12 0° 340° (NNW) 3,260 ? -4.8°
